OBJECT D, 69575

Orbit data source: Space-Track

You're viewing an Uncataloged Satellite

Recently launched and/or uncataloged satellites may have evolving metadata. Metadata may include but not limited to: Owner, Maufacturer, Bus, Motor, and Mission.

OBJECT D, 69575 is a satellite owned by Zhongguo Xingwang (CN) in LEO that was launched on Wed, 17 Jun 2026 UTC via a CHANG ZHENG 12 launch vehicle from the Wenchang Satellite Launch Center (WSC). Unknown objects in Earth's orbit typically refer to objects detected orbiting the Earth but have not yet been identified or cataloged. These objects could be anything from previously untracked satellites, spent rocket stages, debris from satellite collisions, or even natural meteoroids temporarily captured by Earth's gravity.

Loading next visibility...
Identifier
69575, 2026-137D
Orbit
LEO
Country
Flag of CNCN / PRC
Related business
Manufacturer
YINNT
Mission
Operational spacecraft
Bus & Motor
XINGWANG Y, Unknown motor
Mass
~800 kg wet, ~800 kg dry
Launch date (UTC)
2026-06-17 (2 days ago)
Launch vehicle
CHANG ZHENG 12
Launch site
Wenchang Satellite Launch Center (WSC)
Object type
Unknown
Shape & HBR
Unknown
Radar Cross Section
RCS unknown

Expand to show TLE details & history
Last TLE update: 6 hours ago

TLE from 6 hours ago
0 OBJECT D
1 69575U 26137D   26170.52731374 -.00000122  00000-0  19587-4 0  9999
2 69575  49.9989 246.0715 0011279 234.1359 125.8494 13.92409654   358
Epoch: 2026-06-19T12:39Z
TLE epoch observation values (Epoch: 2026-06-19T12:39:19.907Z)
Latitude
0.00004°
Longitude
148.48358°
Altitude
925.547 km
Speed
7.388 km/s
True Right ascension
16h 24m 17s
True Declination
0° 00' 00"
Sunlit
Object was in full shadow at epoch
Visualization orbit readout
Latitude
Unknown
Longitude
Unknown
Altitude
Unknown
Speed
Unknown
Apparent Right ascension
Unknown
Apparent Declination
Unknown
Sunlit
N/A
Visualization observer readout
Local Sidereal Time
05:48:39
Azimuth
Unknown
Elevation
Unknown
Doppler factor
Unknown
Orbital elements
Apogee altitude
929.159 km
Perigee altitude
912.693 km
Semi-major axis
7,299.063 km
Eccentricity
0.00113
Inclination
49.9989°
RAAN
246.0715°
Arg. of periapsis
234.1359°
True anomaly
125.95408°
Mean anomaly
125.8494°
Eccentric anomaly
125.90175°
Mean motion
3.48051 °/min
Orbital period
103.43 mins
BSTAR
0.000019587
Loading maneuver chart data...
Computing Atmospheric mass density...
Loading historical data...
Loading historical data...
Loading historical data...
Loading historical data...
Loading historical data...
Loading historical data...
Loading historical data...

Documentation

Showing up to 5 results
|